Retour au catalogue

STARLINK-33756

ActifCommunicationsVLEO
NORAD 63458·PAYLOAD·🇺🇸 United States

Lancé Apr 4, 2025 depuis Vandenberg Space Force Base

Loading…

Prochains Passages (prochaines 24 heures)

TLE

FraisSource: CelesTrak SupGP

Époque: Sep 15, 2026, 02:29 UTC

1 63458C 25069AB  26258.10395833  .00073041  00000+0  21583-2 0  2586
2 63458  53.1584 335.0106 0001147  90.1889 221.9390 15.34350193    11

Suivez STARLINK-33756 en temps réel avec AllMySat

Download on the App Store